Regional Weather Roundup
Issued by NWS

Home | Current Version | Previous Version | Graphics & Text | Print | Product List | Glossary On
Versions: 1 2 3 4 5 6 7 8 9 10 11 12 13 14 15 16 17 18 19 20 21 22 23 24 25 26 27 28 29 30 31 32 33 34 35 36 37 38 39 40 41 42 43 44 45 46 47 48 49 50
000
ASUS44 KMEG 022200
RWRTN
TENNESSEE HOURLY STATE WEATHER ROUNDUP
NATIONAL WEATHER SERVICE MEMPHIS TN
500 PM CDT TUE SEP 02 2014

TNZ002-004-019-021-049-052-054-088>092-022300-
WEST TENNESSEE

CITY           SKY/WX    TMP DP  RH WIND       PRES   REMARKS
MEMPHIS INTL   CLOUDY    76  72  87 S7        29.91F
NWS MEMPHIS      N/A     78 N/A N/A MISG        N/A
JACKSON        PTSUNNY   85  75  72 SW8       29.92F HX  93
DYERSBURG      CLOUDY    84  66  54 W3        29.92F
UNION CITY     SUNNY     82  73  74 N5        29.91F
PARIS          SUNNY     81  73  78 S5        29.95F
SAVANNAH       SUNNY     81  79  94 SW12      29.96F
$$

TNZ008-025-027-028-033-062-065-066-022300-
NORTH MIDDLE TENNESSEE

CITY           SKY/WX    TMP DP  RH WIND       PRES   REMARKS
NASHVILLE      PTSUNNY   88  72  58 SW9       29.94S THUNDER HX  94
CLARKSVILLE    TSTM      78  72  81 W17       29.95R
COOKEVILLE     MOSUNNY   88  73  62 SW9       29.95F HX  96
CROSSVILLE     MOSUNNY   86  67  52 SW5       30.03F
$$

TNZ061-075-076-078-094-096-097-022300-
SOUTH MIDDLE TENNESSEE

CITY           SKY/WX    TMP DP  RH WIND       PRES   REMARKS
WINCHESTER     SUNNY     88  70  55 SW9       29.97F HX  92
SHELBYVILLE    MOSUNNY   90  73  58 SW12      29.95F HX  98
$$

TNZ017-018-042-046-047-022300-
NORTHEAST TENNESSEE

CITY           SKY/WX    TMP DP  RH WIND       PRES   REMARKS
TRI CITIES     MOSUNNY   88  62  41 W9        29.99F
ELIZABETHTON   CLEAR     88  64  45 W8        29.99F
$$

TNZ012-013-036-069-073-074-022300-
CENTRAL EAST TENNESSEE

CITY           SKY/WX    TMP DP  RH WIND       PRES   REMARKS
KNOXVILLE      PTSUNNY   88  68  51 SW13      29.96F HX  91
OAK RIDGE      MOSUNNY   89  70  53 S5G16     29.98F HX  94
GATLINBURG     CLEAR     90  66  45 W10       29.97S HX  92
$$

TNZ083-085-099-022300-
SOUTHEAST TENNESSEE

CITY           SKY/WX    TMP DP  RH WIND       PRES   REMARKS
CHATTANOOGA    MOSUNNY   92  65  40 W10       29.96F HX  94
$$

SKY/WX REPORTED AS FAIR MEANS FEW OR NO CLOUDS BELOW
12 THOUSAND FEET.



USA.gov is the U.S. government's official web portal to all federal, state and local government web resources and services.